K1RTA-1 Weather Reports


time (UTC)temp
C
wind
direction
speed
KPH
gust
KPH
rain 1hr
cm
rain 24hr
cm
rain mn
cm
humidity
%
barometer
mb
20260507223620 15 212 6.4 14.5 0.00 0.25 0.00 73 1006.6
20260507222119 15 214 6.4 14.5 0.00 0.25 0.00 72 1006.7
20260507220619 15 217 6.4 16.1 0.00 0.25 0.00 70 1006.8
20260507215120 16 221 4.8 12.9 0.00 0.25 0.00 69 1006.5
20260507213620 16 96 3.2 8.0 0.00 0.25 0.00 72 1006.7
20260507212121 15 119 4.8 14.5 0.00 0.25 0.00 70 1006.6
20260507210620 16 105 6.4 14.5 0.00 0.25 0.00 65 1006.8
20260507205120 17 129 4.8 9.7 0.00 0.25 0.00 67 1006.5
20260507203620 17 137 3.2 11.3 0.00 0.25 0.00 63 1006.4
20260507202120 17 129 4.8 9.7 0.00 0.25 0.00 64 1006.4
20260507200621 17 92 6.4 14.5 0.00 0.25 0.00 63 1006.3
20260507195119 17 150 3.2 9.7 0.00 0.25 0.00 63 1006.5
20260507193621 17 222 4.8 9.7 0.00 0.25 0.00 55 1006.8
20260507192119 18 263 1.6 6.4 0.00 0.25 0.00 59 1006.9
20260507190621 17 221 3.2 8.0 0.00 0.25 0.00 58 1007.2
20260507185120 17 226 4.8 9.7 0.00 0.25 0.00 61 1007.3
20260507183620 17 110 4.8 11.3 0.00 0.25 0.00 60 1007.6
20260507182119 17 76 3.2 14.5 0.00 0.25 0.00 59 1007.7
20260507180620 17 214 1.6 9.7 0.00 0.25 0.00 59 1007.7
20260507175120 17 260 4.8 12.9 0.00 0.25 0.00 65 1008.1
20260507173621 16 297 4.8 14.5 0.00 0.25 0.00 68 1008.0
20260507172120 16 282 4.8 12.9 0.00 0.25 0.00 70 1008.2
20260507170621 15 273 6.4 17.7 0.00 0.25 0.00 73 1008.4
20260507165121 15 270 8.0 19.3 0.00 0.25 0.00 72 1008.3
20260507163620 15 270 6.4 14.5 0.00 0.25 0.00 75 1008.3
20260507162121 15 281 8.0 17.7 0.00 0.25 0.00 75 1008.3
20260507160621 15 42 6.4 16.1 0.00 0.25 0.00 77 1008.4
20260507155121 14 40 8.0 14.5 0.00 0.25 0.00 79 1008.7
20260507153620 13 42 6.4 14.5 0.00 0.25 0.00 80 1008.9
20260507152121 13 43 6.4 14.5 0.00 0.25 0.00 83 1008.8
20260507150621 12 45 6.4 16.1 0.00 0.25 0.00 86 1009.0
20260507145120 11 43 6.4 14.5 0.00 0.25 0.00 88 1008.9
20260507143621 11 42 6.4 17.7 0.00 0.25 0.00 87 1009.0
20260507142120 11 43 3.2 14.5 0.00 0.25 0.00 88 1009.0
20260507140620 11 40 4.8 9.7 0.00 0.25 0.00 90 1009.1
20260507135120 10 39 6.4 14.5 0.00 0.25 0.00 89 1009.0
20260507133620 10 40 3.2 12.9 0.00 0.25 0.00 91 1008.7
20260507132121 10 44 3.2 8.0 0.00 0.25 0.00 92 1009.0
20260507130621 10 39 3.2 11.3 0.00 0.25 0.00 92 1009.4
20260507125120 9 38 3.2 9.7 0.00 0.25 0.00 92 1009.0
20260507123621 9 40 3.2 11.3 0.00 0.25 0.00 91 1008.8
20260507122120 9 29 3.2 11.3 0.00 0.25 0.00 91 1008.8
20260507120620 9 35 4.8 16.1 0.00 0.25 0.00 91 1008.8
20260507115121 10 40 4.8 17.7 0.00 0.25 0.00 91 1009.1
20260507113620 10 36 3.2 14.5 0.00 0.25 0.00 91 1008.5
20260507112121 10 31 6.4 25.7 0.00 0.25 0.00 91 1008.3
20260507110620 10 36 6.4 22.5 0.00 0.25 0.00 92 1008.6
20260507105120 10 37 4.8 17.7 0.00 0.25 0.00 92 1008.4
20260507103622 10 38 4.8 19.3 0.00 0.25 0.00 92 1008.1
20260507102121 10 36 6.4 14.5 0.00 0.25 0.00 92 1008.2
20260507100621 11 34 6.4 20.9 0.00 0.25 0.00 92 1007.4
20260507095120 11 34 6.4 14.5 0.00 0.25 0.00 92 1007.7
20260507093621 12 36 4.8 17.7 0.00 0.25 0.00 93 1007.3
20260507092120 12 41 6.4 16.1 0.00 0.25 0.00 93 1007.6
20260507090620 12 40 8.0 16.1 0.00 0.25 0.00 93 1008.2
20260507085121 13 40 4.8 19.3 0.00 0.25 0.00 93 1008.0
20260507083621 13 37 1.6 4.8 0.00 0.23 0.00 93 1006.9
20260507082120 13 34 3.2 9.7 0.00 0.23 0.00 93 1006.6
20260507080622 13 35 1.6 6.4 0.00 0.23 0.00 93 1006.6
20260507075122 13 34 1.6 9.7 0.00 0.23 0.23 93 1006.9
20260507073620 13 34 4.8 14.5 0.00 0.23 0.23 93 1007.1
20260507072121 13 36 1.6 9.7 0.00 0.23 0.23 93 1007.1
20260507070621 13 37 3.2 11.3 0.00 0.23 0.23 93 1007.0
20260507065121 13 37 3.2 14.5 0.00 0.23 0.23 93 1007.0
20260507063620 13 38 4.8 14.5 0.00 0.23 0.23 93 1007.5
20260507062121 13 38 6.4 16.1 0.00 0.23 0.23 93 1007.3
20260507060621 13 40 6.4 19.3 0.00 0.23 0.23 93 1007.4
20260507055120 13 218 8.0 20.9 0.00 0.23 0.23 93 1007.4
20260507053621 13 231 8.0 22.5 0.00 0.23 0.23 93 1007.7
20260507052122 13 43 9.7 20.9 0.00 0.23 0.23 93 1008.1
20260507050621 13 42 11.3 24.1 0.00 0.23 0.23 93 1007.9
20260507045120 13 35 8.0 22.5 0.00 0.23 0.23 93 1007.9
20260507043622 13 35 8.0 17.7 0.00 0.23 0.23 92 1008.0
20260507042121 13 243 8.0 20.9 0.00 0.23 0.23 92 1008.3
20260507040622 14 238 11.3 24.1 0.00 0.23 0.23 92 1008.4
20260507035120 14 231 12.9 27.4 0.00 0.23 0.23 92 1008.5
20260507033621 14 225 11.3 27.4 0.00 0.23 0.23 92 1008.3
20260507032122 14 213 11.3 25.7 0.00 0.23 0.23 92 1007.8
20260507030621 14 218 12.9 29.0 0.00 0.23 0.23 92 1007.9
20260507025121 14 225 12.9 33.8 0.00 0.23 0.23 92 1008.4
20260507023621 14 223 12.9 25.7 0.00 0.23 0.23 92 1008.6
20260507022121 14 221 12.9 29.0 0.00 0.23 0.23 92 1008.9
20260507020622 14 226 14.5 33.8 0.00 0.23 0.23 92 1009.1
20260507015122 14 219 12.9 32.2 0.05 0.23 0.23 93 1009.4
20260507013621 14 219 12.9 29.0 0.05 0.20 0.20 92 1009.5
20260507012122 14 213 14.5 35.4 0.05 0.20 0.20 92 1009.5
20260507010620 14 211 17.7 35.4 0.08 0.20 0.20 92 1009.4
20260507005121 14 212 14.5 30.6 0.05 0.15 0.15 92 1009.5
20260507003621 14 209 16.1 43.5 0.05 0.15 0.15 92 1009.4
20260507002122 14 209 14.5 33.8 0.10 0.13 0.13 92 1009.4
20260507000621 14 208 14.5 35.4 0.13 0.13 0.13 91 1009.6
20260506235121 14 262 16.1 33.8 0.10 0.10 0.10 91 1009.7
20260506233621 15 212 14.5 33.8 0.08 0.08 0.08 90 1009.8
20260506232122 15 212 16.1 32.2 0.00 0.00 0.00 89 1010.1
20260506230621 16 215 16.1 43.5 0.00 0.00 0.00 85 1010.1
20260506225121 16 214 17.7 38.6 0.00 0.00 0.00 83 1010.2